Regional Weather Roundup
Issued by NWS Albany, NY

Home | Current Version | Previous Version | Text Only | Print | Product List | Glossary On
Versions: 1 2 3 4 5 6 7 8 9 10 11 12 13 14 15 16 17 18 19 20 21 22 23 24 25 26 27 28
000
ASUS41 KALY 210810
RWRALY

NEW YORK STATE HOURLY WEATHER ROUNDUP
NATIONAL WEATHER SERVICE ALBANY NY
300 AM EST TUE FEB 21 2017

NOTE: "FAIR" INDICATES FEW OR NO CLOUDS BELOW 12,000 FEET WITH NO
SIGNIFICANT WEATHER AND/OR NO OBSTRUCTIONS TO VISIBILITY.

NYZ032-033-038>043-046>054-057>066-NYZ062>081-082-084-210900-
EAST


CITY           SKY/WX    TMP DP  RH WIND       PRES   REMARKS
ALBANY         CLOUDY    22  13  68 CALM      30.39F
GLENS FALLS    CLOUDY    17  11  77 CALM      30.39S
POUGHKEEPSIE   CLOUDY    22  17  81 CALM      30.37F
NEWBURGH       CLEAR     27  19  74 CALM      30.37F
MONTGOMERY     CLOUDY    24  18  77 CALM      30.35F
WHITE PLAINS   CLEAR     32   8  36 N5        30.33F WCI  27
ISLIP          CLEAR     29  18  63 NE3       30.36S
NEW YORK CITY  PTCLDY    38  13  35 NE8       30.36F WCI  32
CENTRAL PARK   CLEAR     37   9  31 NE6       30.38F WCI  32
$$

NYZ005>009-017-018-044>046-055-056-210900-
CENTRAL


CITY           SKY/WX    TMP DP  RH WIND       PRES   REMARKS
FULTON         PTCLDY    27  18  69 SE6       30.29F WCI  20
SYRACUSE       CLOUDY    23  17  78 E7        30.29F WCI  15
ROME           CLOUDY    20  15  81 SE5       30.35F WCI  13
ELMIRA         CLOUDY    26  18  71 E5        30.28F WCI  20
BINGHAMTON     CLEAR     25  14  63 SE6       30.25S WCI  18
MONTICELLO     CLOUDY    21  14  73 CALM      30.30F
$$

NYZ026>034-041>043-087-210900-
NORTH


CITY           SKY/WX    TMP DP  RH WIND       PRES   REMARKS
WATERTOWN      CLOUDY    19  16  88 SW3       30.31S
FORT DRUM      NOT AVBL
OGDENSBURG     FAIR      18  15  89 CALM      30.32F
MASSENA        CLOUDY    15  11  83 NE3       30.35F
SARANAC LAKE   CLOUDY     5   2  87 NE3       30.26F
PLATTSBURGH    CLOUDY    16  13  88 CALM      30.37F
$$

NYZ001>004-010>016-019>021-085-210900-
WEST


CITY           SKY/WX    TMP DP  RH WIND       PRES   REMARKS
NIAGARA FALLS  PTCLDY    32  19  58 E3        30.16F
BUFFALO        CLOUDY    32  20  61 E6        30.16F WCI  26
DUNKIRK        CLOUDY    34  25  69 N5        30.12F WCI  30
JAMESTOWN      CLOUDY    39  19  45 S10       30.13F WCI  32
WELLSVILLE     CLOUDY    32  19  58 SE7       30.19F WCI  26
ROCHESTER      MOCLDY    30  17  58 SE5       30.23F WCI  25
PENN YAN       PTCLDY    29  19  66 S5        30.26F WCI  24
$$

             KEY
       WCI = WIND CHILL INDEX
       VSB = VISIBILITY
       HX  = HEAT INDEX
$$




USA.gov is the U.S. government's official web portal to all federal, state and local government web resources and services.